Tracking 29892 objects as of 21-Nov-2024
HD Live streaming from Space Station
objects crossing your sky now

ONEWEB-0179

Track ONEWEB-0179 now!
10-day predictions
ONEWEB-0179 is classified as:


NORAD ID: 48212
Int'l Code: 2021-031C
Perigee: 1,211.6 km
Apogee: 1,214.2 km
Inclination: 87.9 °
Period: 109.5 minutes
Semi major axis: 7583 km
RCS: Unknown
Launch date: April 25, 2021
Source: United Kingdom (UK)
Launch site: VOSTOCHNY COSMODROME (VOSTO)
Your satellite tracking list
Your tracking list is empty




NASA's NSSDC Master Catalog

Two Line Element Set (TLE):
1 48212U 21031C   24325.19379695  .00000040  00000-0  72438-4 0  9991
2 48212  87.9031  43.8263 0001705 103.7911 256.3409 13.14500328172925
Source of the keplerian elements: AFSPC